Time,TemperatureF,DewpointF,PressureIn,WindDirection,WindDirectionDegrees,WindSpeedMPH,WindSpeedGustMPH,Humidity,HourlyPrecipIn,Conditions,Clouds,dailyrainin,SoftwareType,DateUTC
2013-02-23 00:03:00,36.0,36.0,30.11,NNE,27,1.0,3.0,100,-99.99,,,-99.99,,2013-02-23 05:03:00,
2013-02-23 00:12:00,36.0,36.0,30.11,NNE,27,1.0,3.0,100,-99.99,,,-99.99,,2013-02-23 05:12:00,
2013-02-23 00:23:00,35.0,35.0,30.11,NNW,332,2.0,0.0,100,-99.99,,,-99.99,,2013-02-23 05:23:00,
2013-02-23 00:33:00,35.0,35.0,30.11,NW,325,0.0,4.0,100,-99.99,,,-99.99,,2013-02-23 05:33:00,
2013-02-23 00:42:00,35.0,35.0,30.11,NW,325,0.0,4.0,100,-99.99,,,-99.99,,2013-02-23 05:42:00,
2013-02-23 00:52:00,35.0,35.0,30.11,NW,317,2.0,3.0,100,-99.99,,,-99.99,,2013-02-23 05:52:00,
2013-02-23 01:02:00,35.0,35.0,30.12,NNW,327,0.0,5.0,100,-99.99,,,-99.99,,2013-02-23 06:02:00,
2013-02-23 01:11:00,35.0,35.0,30.12,NNW,327,0.0,5.0,100,-99.99,,,-99.99,,2013-02-23 06:11:00,
2013-02-23 01:23:00,35.0,35.0,30.13,NNW,327,0.0,0.0,100,-99.99,,,-99.99,,2013-02-23 06:23:00,
2013-02-23 01:32:00,35.0,35.0,30.13,NW,307,0.0,4.0,100,-99.99,,,-99.99,,2013-02-23 06:32:00,
2013-02-23 01:42:00,35.0,35.0,30.13,NW,307,0.0,4.0,100,-99.99,,,-99.99,,2013-02-23 06:42:00,
2013-02-23 01:51:00,35.0,35.0,30.13,WNW,293,0.0,0.0,100,-99.99,,,-99.99,,2013-02-23 06:51:00,
2013-02-23 02:01:00,35.0,35.0,30.11,WNW,293,0.0,0.0,100,-99.99,,,-99.99,,2013-02-23 07:01:00,
2013-02-23 02:11:00,35.0,35.0,30.11,WNW,293,0.0,0.0,100,-99.99,,,-99.99,,2013-02-23 07:11:00,
2013-02-23 02:21:00,35.0,35.0,30.10,NNW,346,0.0,0.0,100,-99.99,,,-99.99,,2013-02-23 07:21:00,
2013-02-23 02:32:00,35.0,35.0,30.10,NNW,346,0.0,0.0,100,-99.99,,,-99.99,,2013-02-23 07:32:00,
2013-02-23 02:42:00,35.0,35.0,30.10,NNW,346,0.0,0.0,100,-99.99,,,-99.99,,2013-02-23 07:42:00,
2013-02-23 02:52:00,35.0,35.0,30.07,WNW,282,4.0,7.0,100,-99.99,,,-99.99,,2013-02-23 07:52:00,
2013-02-23 03:01:00,35.0,35.0,30.05,NNW,342,4.0,5.0,100,-99.99,,,-99.99,,2013-02-23 08:01:00,
2013-02-23 03:11:00,35.0,35.0,30.05,NNW,342,4.0,5.0,100,-99.99,,,-99.99,,2013-02-23 08:11:00,
2013-02-23 03:21:00,35.0,35.0,30.03,NNW,331,3.0,8.0,100,-99.99,,,-99.99,,2013-02-23 08:21:00,
2013-02-23 03:32:00,35.0,35.0,30.05,WSW,249,1.0,3.0,100,-99.99,,,-99.99,,2013-02-23 08:32:00,
2013-02-23 03:42:00,35.0,35.0,30.05,WSW,249,1.0,3.0,100,-99.99,,,-99.99,,2013-02-23 08:42:00,
2013-02-23 03:52:00,35.0,35.0,30.04,NW,308,4.0,8.0,100,-99.99,,,-99.99,,2013-02-23 08:52:00,
2013-02-23 04:02:00,35.0,35.0,30.04,NW,306,6.0,8.0,100,-99.99,,,-99.99,,2013-02-23 09:02:00,
2013-02-23 04:11:00,35.0,35.0,30.04,NW,306,6.0,8.0,100,-99.99,,,-99.99,,2013-02-23 09:11:00,
2013-02-23 04:22:00,34.0,34.0,30.01,WNW,282,5.0,10.0,100,-99.99,,,-99.99,,2013-02-23 09:22:00,
2013-02-23 04:32:00,35.0,35.0,30.03,NW,318,3.0,0.0,100,-99.99,,,-99.99,,2013-02-23 09:32:00,
2013-02-23 04:42:00,35.0,35.0,30.03,NW,318,3.0,0.0,100,-99.99,,,-99.99,,2013-02-23 09:42:00,
2013-02-23 04:52:00,35.0,35.0,30.03,WNW,293,4.0,8.0,100,-99.99,,,-99.99,,2013-02-23 09:52:00,
2013-02-23 05:01:00,35.0,35.0,30.04,West,266,3.0,6.0,100,-99.99,,,-99.99,,2013-02-23 10:01:00,
2013-02-23 05:11:00,35.0,35.0,30.04,West,266,3.0,6.0,100,-99.99,,,-99.99,,2013-02-23 10:11:00,
2013-02-23 05:21:00,35.0,35.0,30.04,WNW,300,0.0,4.0,100,-99.99,,,-99.99,,2013-02-23 10:21:00,
2013-02-23 05:32:00,35.0,35.0,30.03,NW,322,3.0,7.0,100,-99.99,,,-99.99,,2013-02-23 10:32:00,
2013-02-23 05:42:00,35.0,35.0,30.03,NW,322,3.0,7.0,100,-99.99,,,-99.99,,2013-02-23 10:42:00,
2013-02-23 05:52:00,35.0,35.0,30.05,East,86,0.0,2.0,100,-99.99,,,-99.99,,2013-02-23 10:52:00,
2013-02-23 06:02:00,35.0,35.0,30.05,ENE,68,2.0,2.0,100,-99.99,,,-99.99,,2013-02-23 11:02:00,
2013-02-23 06:11:00,35.0,35.0,30.05,ENE,68,2.0,2.0,100,-99.99,,,-99.99,,2013-02-23 11:11:00,
2013-02-23 06:22:00,35.0,35.0,30.05,ENE,68,2.0,2.0,100,-99.99,,,-99.99,,2013-02-23 11:22:00,
2013-02-23 06:32:00,35.0,35.0,30.05,ENE,68,2.0,2.0,100,-99.99,,,-99.99,,2013-02-23 11:32:00,
2013-02-23 06:42:00,35.0,35.0,30.05,ENE,68,2.0,2.0,100,-99.99,,,-99.99,,2013-02-23 11:42:00,
2013-02-23 07:02:00,35.0,35.0,30.01,NNW,332,0.0,2.0,100,-99.99,,,-99.99,,2013-02-23 12:02:00,
2013-02-23 07:11:00,35.0,35.0,30.01,NNW,332,0.0,2.0,100,-99.99,,,-99.99,,2013-02-23 12:11:00,
2013-02-23 07:22:00,35.0,35.0,29.99,NW,325,3.0,0.0,100,-99.99,,,-99.99,,2013-02-23 12:22:00,
2013-02-23 07:32:00,35.0,35.0,29.98,NW,306,3.0,5.0,100,-99.99,,,-99.99,,2013-02-23 12:32:00,
2013-02-23 07:42:00,35.0,35.0,29.98,NW,306,3.0,5.0,100,-99.99,,,-99.99,,2013-02-23 12:42:00,
2013-02-23 07:52:00,35.0,35.0,29.99,WNW,286,5.0,7.0,100,-99.99,,,-99.99,,2013-02-23 12:52:00,
2013-02-23 08:02:00,35.0,35.0,29.98,NNW,341,4.0,8.0,100,-99.99,,,-99.99,,2013-02-23 13:02:00,
2013-02-23 08:11:00,35.0,35.0,29.98,NNW,341,4.0,8.0,100,-99.99,,,-99.99,,2013-02-23 13:11:00,
2013-02-23 08:22:00,35.0,35.0,29.98,NW,318,5.0,8.0,100,-99.99,,,-99.99,,2013-02-23 13:22:00,
2013-02-23 08:32:00,35.0,35.0,29.98,WNW,291,7.0,10.0,100,-99.99,,,-99.99,,2013-02-23 13:32:00,
2013-02-23 08:42:00,35.0,35.0,29.98,WNW,291,7.0,10.0,100,-99.99,,,-99.99,,2013-02-23 13:42:00,
2013-02-23 08:52:00,35.0,35.0,29.98,NNW,331,5.0,8.0,100,-99.99,,,-99.99,,2013-02-23 13:52:00,
2013-02-23 09:02:00,35.0,35.0,29.98,NNW,328,2.0,6.0,100,-99.99,,,-99.99,,2013-02-23 14:02:00,
2013-02-23 09:11:00,35.0,35.0,29.98,NNW,328,2.0,6.0,100,-99.99,,,-99.99,,2013-02-23 14:11:00,
2013-02-23 09:22:00,36.0,36.0,29.98,WNW,282,5.0,7.0,100,-99.99,,,-99.99,,2013-02-23 14:22:00,
2013-02-23 09:32:00,36.0,36.0,29.98,WNW,301,4.0,6.0,100,-99.99,,,-99.99,,2013-02-23 14:32:00,
2013-02-23 09:42:00,36.0,36.0,29.98,WNW,301,4.0,6.0,100,-99.99,,,-99.99,,2013-02-23 14:42:00,
2013-02-23 09:52:00,36.0,36.0,29.95,NNE,17,4.0,7.0,100,-99.99,,,-99.99,,2013-02-23 14:52:00,
2013-02-23 10:02:00,36.0,36.0,29.95,NNW,331,3.0,6.0,100,-99.99,,,-99.99,,2013-02-23 15:02:00,
2013-02-23 10:11:00,36.0,36.0,29.95,NNW,331,3.0,6.0,100,-99.99,,,-99.99,,2013-02-23 15:11:00,
2013-02-23 10:22:00,36.0,36.0,29.96,West,280,6.0,9.0,100,-99.99,,,-99.99,,2013-02-23 15:22:00,
2013-02-23 10:32:00,37.0,37.0,29.97,NW,311,5.0,9.0,100,-99.99,,,-99.99,,2013-02-23 15:32:00,
2013-02-23 10:42:00,37.0,37.0,29.97,NW,311,5.0,9.0,100,-99.99,,,-99.99,,2013-02-23 15:42:00,
2013-02-23 10:52:00,38.0,38.0,29.95,WNW,293,2.0,3.0,100,-99.99,,,-99.99,,2013-02-23 15:52:00,
2013-02-23 11:01:00,38.0,38.0,29.95,WNW,297,2.0,6.0,100,-99.99,,,-99.99,,2013-02-23 16:01:00,
2013-02-23 11:11:00,38.0,38.0,29.95,WNW,297,2.0,6.0,100,-99.99,,,-99.99,,2013-02-23 16:11:00,
2013-02-23 11:21:00,38.0,38.0,29.95,NNW,332,0.0,4.0,100,-99.99,,,-99.99,,2013-02-23 16:21:00,
2013-02-23 11:32:00,38.0,38.0,29.96,NNW,332,0.0,0.0,100,-99.99,,,-99.99,,2013-02-23 16:32:00,
2013-02-23 11:42:00,38.0,38.0,29.96,NNW,332,0.0,0.0,100,-99.99,,,-99.99,,2013-02-23 16:42:00,
2013-02-23 11:52:00,39.0,39.0,29.96,NNW,332,0.0,0.0,100,-99.99,,,-99.99,,2013-02-23 16:52:00,
2013-02-23 12:01:00,39.0,39.0,29.94,WSW,253,0.0,1.0,100,-99.99,,,-99.99,,2013-02-23 17:01:00,
2013-02-23 12:11:00,39.0,39.0,29.94,WSW,253,0.0,1.0,100,-99.99,,,-99.99,,2013-02-23 17:11:00,
2013-02-23 12:22:00,40.0,40.0,29.94,WSW,258,4.0,0.0,100,-99.99,,,-99.99,,2013-02-23 17:22:00,
2013-02-23 12:32:00,40.0,40.0,29.93,West,273,5.0,5.0,100,-99.99,,,-99.99,,2013-02-23 17:32:00,
2013-02-23 12:42:00,40.0,40.0,29.93,West,273,5.0,5.0,100,-99.99,,,-99.99,,2013-02-23 17:42:00,
2013-02-23 12:52:00,40.0,40.0,29.92,WNW,289,4.0,6.0,100,-99.99,,,-99.99,,2013-02-23 17:52:00,
2013-02-23 13:02:00,41.0,41.0,29.92,WNW,294,2.0,5.0,100,-99.99,,,-99.99,,2013-02-23 18:02:00,
2013-02-23 13:12:00,41.0,41.0,29.92,WNW,294,2.0,5.0,100,-99.99,,,-99.99,,2013-02-23 18:12:00,
2013-02-23 13:22:00,42.0,42.0,29.91,West,279,4.0,8.0,100,-99.99,,,-99.99,,2013-02-23 18:22:00,
2013-02-23 13:32:00,43.0,43.0,29.91,SE,146,1.0,5.0,100,-99.99,,,-99.99,,2013-02-23 18:32:00,
2013-02-23 13:42:00,43.0,43.0,29.91,SE,146,1.0,5.0,100,-99.99,,,-99.99,,2013-02-23 18:42:00,
2013-02-23 13:52:00,44.0,44.0,29.90,WSW,245,1.0,6.0,100,-99.99,,,-99.99,,2013-02-23 18:52:00,
2013-02-23 14:01:00,44.0,44.0,29.89,SSE,158,0.0,0.0,100,-99.99,,,-99.99,,2013-02-23 19:01:00,
2013-02-23 14:11:00,44.0,44.0,29.89,SSE,158,0.0,0.0,100,-99.99,,,-99.99,,2013-02-23 19:11:00,
2013-02-23 14:21:00,45.0,45.0,29.89,WNW,289,2.0,0.0,100,-99.99,,,-99.99,,2013-02-23 19:21:00,
2013-02-23 14:32:00,46.0,46.0,29.88,NNW,328,1.0,4.0,100,-99.99,,,-99.99,,2013-02-23 19:32:00,
2013-02-23 14:42:00,46.0,46.0,29.88,NNW,328,1.0,4.0,100,-99.99,,,-99.99,,2013-02-23 19:42:00,
2013-02-23 14:52:00,46.0,46.0,29.88,South,173,2.0,3.0,100,-99.99,,,-99.99,,2013-02-23 19:52:00,
2013-02-23 15:01:00,46.0,46.0,29.87,ESE,117,3.0,5.0,100,-99.99,,,-99.99,,2013-02-23 20:01:00,
2013-02-23 15:11:00,46.0,46.0,29.87,ESE,117,3.0,5.0,100,-99.99,,,-99.99,,2013-02-23 20:11:00,
2013-02-23 15:21:00,46.0,46.0,29.87,SSE,165,3.0,5.0,100,-99.99,,,-99.99,,2013-02-23 20:21:00,
2013-02-23 15:32:00,47.0,47.0,29.85,ENE,75,3.0,6.0,100,-99.99,,,-99.99,,2013-02-23 20:32:00,
2013-02-23 15:42:00,47.0,47.0,29.85,ENE,75,3.0,6.0,100,-99.99,,,-99.99,,2013-02-23 20:42:00,
2013-02-23 15:53:00,47.0,47.0,29.85,SSE,151,1.0,5.0,100,-99.99,,,-99.99,,2013-02-23 20:53:00,
2013-02-23 16:01:00,48.0,48.0,29.85,ESE,118,1.0,5.0,100,-99.99,,,-99.99,,2013-02-23 21:01:00,
2013-02-23 16:11:00,48.0,48.0,29.85,ESE,118,1.0,5.0,100,-99.99,,,-99.99,,2013-02-23 21:11:00,
2013-02-23 16:22:00,48.0,48.0,29.85,South,179,4.0,4.0,99,-99.99,,,-99.99,,2013-02-23 21:22:00,
2013-02-23 17:22:00,49.0,49.0,29.85,SSW,201,2.0,5.0,100,-99.99,,,-99.99,,2013-02-23 22:22:00,
2013-02-23 17:32:00,48.0,48.0,29.85,SSE,166,3.0,5.0,100,-99.99,,,-99.99,,2013-02-23 22:32:00,
2013-02-23 17:42:00,48.0,48.0,29.85,SSE,166,3.0,5.0,100,-99.99,,,-99.99,,2013-02-23 22:42:00,
2013-02-23 17:52:00,48.0,48.0,29.84,South,177,1.0,4.0,100,-99.99,,,-99.99,,2013-02-23 22:52:00,
2013-02-23 18:01:00,48.0,48.0,29.82,SSE,166,1.0,3.0,100,-99.99,,,-99.99,,2013-02-23 23:01:00,
2013-02-23 18:11:00,48.0,48.0,29.82,SSE,166,1.0,3.0,100,-99.99,,,-99.99,,2013-02-23 23:11:00,
2013-02-23 18:22:00,48.0,48.0,29.83,SSW,193,1.0,2.0,100,-99.99,,,-99.99,,2013-02-23 23:22:00,
2013-02-23 18:32:00,48.0,48.0,29.81,SSE,155,0.0,2.0,100,-99.99,,,-99.99,,2013-02-23 23:32:00,
2013-02-23 18:42:00,48.0,48.0,29.81,SSE,155,0.0,2.0,100,-99.99,,,-99.99,,2013-02-23 23:42:00,
2013-02-23 18:52:00,48.0,48.0,29.81,SSE,155,0.0,0.0,100,-99.99,,,-99.99,,2013-02-23 23:52:00,
2013-02-23 19:01:00,47.0,47.0,29.81,SSE,155,0.0,0.0,100,-99.99,,,-99.99,,2013-02-24 00:01:00,
2013-02-23 19:11:00,47.0,47.0,29.81,SSE,155,0.0,0.0,100,-99.99,,,-99.99,,2013-02-24 00:11:00,
2013-02-23 19:22:00,47.0,47.0,29.80,SSE,155,0.0,0.0,100,-99.99,,,-99.99,,2013-02-24 00:22:00,
2013-02-23 19:32:00,47.0,47.0,29.80,SSE,155,0.0,0.0,100,-99.99,,,-99.99,,2013-02-24 00:32:00,
2013-02-23 19:42:00,47.0,47.0,29.80,SSE,155,0.0,0.0,100,-99.99,,,-99.99,,2013-02-24 00:42:00,
2013-02-23 19:52:00,46.0,46.0,29.80,South,190,0.0,0.0,100,-99.99,,,-99.99,,2013-02-24 00:52:00,
2013-02-23 20:01:00,46.0,46.0,29.80,SSE,168,0.0,4.0,100,-99.99,,,-99.99,,2013-02-24 01:01:00,
2013-02-23 20:11:00,46.0,46.0,29.80,SSE,168,0.0,4.0,100,-99.99,,,-99.99,,2013-02-24 01:11:00,
2013-02-23 20:22:00,46.0,46.0,29.80,SE,132,1.0,3.0,100,-99.99,,,-99.99,,2013-02-24 01:22:00,
2013-02-23 20:32:00,45.0,45.0,29.79,SE,127,1.0,2.0,100,-99.99,,,-99.99,,2013-02-24 01:32:00,
2013-02-23 20:42:00,45.0,45.0,29.79,SE,127,1.0,2.0,100,-99.99,,,-99.99,,2013-02-24 01:42:00,
2013-02-23 20:52:00,45.0,45.0,29.79,SE,127,0.0,0.0,100,-99.99,,,-99.99,,2013-02-24 01:52:00,
2013-02-23 21:01:00,44.0,44.0,29.80,SE,127,0.0,0.0,100,-99.99,,,-99.99,,2013-02-24 02:01:00,
2013-02-23 21:11:00,44.0,44.0,29.80,SE,127,0.0,0.0,100,-99.99,,,-99.99,,2013-02-24 02:11:00,
2013-02-23 21:22:00,44.0,44.0,29.80,SE,127,0.0,0.0,100,-99.99,,,-99.99,,2013-02-24 02:22:00,
2013-02-23 21:32:00,45.0,45.0,29.79,SE,127,0.0,0.0,100,-99.99,,,-99.99,,2013-02-24 02:32:00,
2013-02-23 21:42:00,45.0,45.0,29.79,SE,127,0.0,0.0,100,-99.99,,,-99.99,,2013-02-24 02:42:00,
2013-02-23 21:52:00,45.0,45.0,29.79,South,179,2.0,4.0,100,-99.99,,,-99.99,,2013-02-24 02:52:00,
2013-02-23 22:02:00,45.0,45.0,29.79,South,180,3.0,4.0,100,-99.99,,,-99.99,,2013-02-24 03:02:00,
2013-02-23 22:11:00,45.0,45.0,29.79,South,180,3.0,4.0,100,-99.99,,,-99.99,,2013-02-24 03:11:00,
2013-02-23 22:22:00,45.0,45.0,29.79,ESE,120,0.0,4.0,100,-99.99,,,-99.99,,2013-02-24 03:22:00,
2013-02-23 22:32:00,45.0,45.0,29.78,ESE,120,0.0,0.0,100,-99.99,,,-99.99,,2013-02-24 03:32:00,
2013-02-23 22:42:00,45.0,45.0,29.78,ESE,120,0.0,0.0,100,-99.99,,,-99.99,,2013-02-24 03:42:00,
2013-02-23 22:52:00,44.0,44.0,29.79,SE,135,3.0,3.0,100,-99.99,,,-99.99,,2013-02-24 03:52:00,
2013-02-23 23:02:00,44.0,44.0,29.78,SSE,158,2.0,4.0,100,-99.99,,,-99.99,,2013-02-24 04:02:00,
2013-02-23 23:11:00,44.0,44.0,29.78,SSE,158,2.0,4.0,100,-99.99,,,-99.99,,2013-02-24 04:11:00,
2013-02-23 23:22:00,44.0,44.0,29.78,South,170,2.0,2.0,100,-99.99,,,-99.99,,2013-02-24 04:22:00,
2013-02-23 23:32:00,45.0,45.0,29.78,SE,145,1.0,3.0,100,-99.99,,,-99.99,,2013-02-24 04:32:00,
2013-02-23 23:42:00,45.0,45.0,29.78,SE,145,1.0,3.0,100,-99.99,,,-99.99,,2013-02-24 04:42:00,
2013-02-23 23:52:00,44.0,44.0,29.78,SE,146,1.0,2.0,100,-99.99,,,-99.99,,2013-02-24 04:52:00,